#timestamp,LO_Frequency,Hit,StdDev 
1672365615.4,286047000.7,P
1672365635.2,286046998.6,N
1672365655.0,286046999.3,N
1672365655.9,286046999.3,N
1672365675.8,286046999.9,N
1672365695.6,286047001.1,N
1672365715.5,286046998.3,N
1672365735.3,286046996.8,N
1672365755.1,286046997.7,N
1672365775.9,286046996.8,N
1672365795.7,286046995.2,N
1672365815.6,286046997.6,N
1672365835.4,286046997.7,N
1672365855.2,286046997.3,N
1672365875.1,286046996.5,N
1672365876.0,286046996.5,N
1672365895.8,286046996.8,N
1672365915.7,286046998.5,N
1672365935.5,286046998.4,N
1672365955.3,286047000.9,N
1672365975.2,286046998.2,N
1672365995.0,286046998.8,N
1672365995.9,286046998.8,N
1672366015.8,286046998.4,N
1672366035.6,286047000.0,N
1672366055.4,286046996.5,N
1672366075.3,286046999.0,N
1672366095.1,286046999.2,N
1672366115.9,286046998.5,N
1672366135.7,286046996.8,N
1672366155.5,286046999.2,N
1672366175.4,286046997.7,N
1672366195.2,286046997.5,N
1672366215.1,286046997.1,N
1672366216.0,286046997.1,N
1672366235.8,286046997.9,N
1672366255.6,286046999.2,N
1672366275.5,286046999.1,N
1672366295.3,286046999.6,N
1672366315.2,286046998.7,N
1672366335.9,286047000.8,N
1672366355.7,286046998.6,N
1672366375.6,286047000.8,N
1672366395.4,286047000.6,N
1672366415.3,286047001.0,N
1672366435.1,286046998.6,N
1672366436.0,286046998.6,N
1672366455.8,286046997.2,N
1672366475.7,286046997.1,N
1672366495.5,286046997.5,N
1672366515.3,286046994.9,Y
1672366535.2,286046996.6,P
1672366555.0,286046996.6,P
1672366555.9,286046996.6,P
1672366575.8,286046997.0,Y
1672366595.6,286047000.8,P
1672366615.4,286047000.0,N
1672366635.3,286046999.9,N
1672366655.1,286047001.3,N
1672366675.9,286047003.3,N
1672366695.7,286047004.0,N
1672366715.5,286047001.8,N
1672366735.4,286047001.3,N
1672366755.2,286047003.2,N
1672366775.1,286047001.5,N
1672366776.0,286047001.5,N
1672366795.8,286047004.4,N
1672366815.6,286047001.7,N
1672366835.5,286047001.6,N
1672366855.3,286047003.4,N
1672366875.1,286047001.3,N
1672366895.9,286047003.6,N
1672366915.7,286047003.7,N
1672366935.6,286047003.8,N
1672366955.4,286047006.0,Y
1672366975.2,286047001.8,P
1672366995.1,286047002.7,P
1672366996.0,286047002.7,P
1672367015.8,286047000.3,N
1672367035.7,286046999.9,N
1672367055.5,286046999.7,N
1672367075.3,286047000.9,N
1672367095.2,286047000.9,N
1672367115.0,286047000.7,N
1672367115.9,286047000.7,N
1672367135.8,286046998.2,N
1672367155.6,286047002.3,N
1672367175.4,286047003.5,N
1672367195.3,286047002.0,N
1672367215.1,286047002.4,N
1672367235.8,286047002.5,N
1672367255.7,286047001.8,N
1672367275.5,286046999.8,N
1672367295.4,286046999.7,N
1672367315.2,286047004.2,Y
1672367335.0,286047002.3,P
1672367335.9,286047002.3,P
1672367355.8,286047000.0,N
1672367375.6,286047002.2,N
1672367395.4,286047001.5,N
1672367415.3,286047002.6,Y
1672367435.1,286047000.8,P
1672367455.9,286046999.5,N
1672367475.7,286046999.5,N
1672367495.5,286046999.5,N
1672367515.4,286046996.7,Y
1672367535.2,286046997.3,P
1672367555.1,286046997.9,N
1672367556.0,286046997.9,N
1672367575.8,286047000.5,N
1672367595.6,286046999.1,N
1672367615.5,286046997.4,N
1672367635.3,286046997.2,N
1672367655.1,286046996.9,N
1672367675.9,286046997.3,N
1672367695.7,286046997.0,N
1672367715.6,286046998.7,N
1672367735.4,286046998.6,N
1672367755.2,286046997.3,N
1672367775.1,286046997.1,N
1672367776.0,286046997.1,N
1672367795.8,286046997.6,N
1672367815.7,286046997.4,N
1672367835.5,286046997.4,N
1672367855.3,286046997.8,N
1672367875.2,286046999.5,N
1672367895.0,286046998.7,N
1672367895.9,286046998.7,N
1672367915.8,286046999.1,N
1672367935.6,286047000.5,N
1672367955.4,286046998.2,N
1672367975.3,286046998.1,N
1672367995.1,286046996.8,Y
1672368015.9,286046996.9,P
1672368035.7,286047000.7,N
1672368055.5,286047000.8,N
1672368075.4,286046998.4,N
1672368095.2,286046998.1,N
1672368115.0,286046998.2,N
1672368115.9,286046998.2,N
1672368135.8,286046998.3,N
1672368155.6,286047000.9,N
1672368175.5,286046998.5,N
1672368195.3,286046998.7,N
1672368215.1,286046998.7,N
1672368235.9,286046998.3,N
1672368255.7,286047002.1,N
1672368275.5,286047000.6,N
1672368295.4,286046998.5,N
1672368315.2,286047002.7,N
1672368335.1,286047002.0,N
1672368336.0,286047002.0,N
1672368355.8,286046999.7,N
1672368375.6,286047001.0,N
1672368395.5,286047002.7,N
1672368415.3,286047000.1,N
1672368435.1,286047000.4,N
1672368455.9,286047000.3,N
1672368475.7,286046998.5,N
1672368495.6,286047000.9,N
1672368515.4,286047000.4,N
1672368535.2,286047000.0,N
1672368555.1,286046999.3,N
1672368556.0,286046999.3,N
1672368575.8,286046998.6,N
1672368595.6,286046998.1,N
1672368615.5,286046999.3,N
1672368635.3,286046999.3,N
1672368655.2,286046999.4,N
1672368675.9,286046999.4,N
1672368695.7,286046998.8,N
1672368715.6,286046998.3,N
1672368735.4,286046999.2,N
1672368755.2,286046998.3,N
1672368775.1,286046998.1,N
1672368776.0,286046998.1,N
1672368795.8,286046998.7,N
1672368815.7,286046999.4,N
1672368835.5,286046998.3,N
1672368855.3,286047001.0,N
1672368875.2,286047002.3,N
1672368895.0,286047002.3,N
1672368895.9,286047002.3,N
1672368915.7,286047001.8,N
1672368935.6,286047000.2,N
1672368955.4,286047001.1,N
1672368975.3,286047000.7,N
1672368995.1,286047002.3,N
1672368996.0,286047002.3,N
1672369015.8,286046999.9,N
1672369035.7,286047002.2,N
1672369055.5,286046998.8,N
1672369075.3,286046999.1,N
1672369095.2,286046999.4,N
1672369115.0,286047002.1,N
1672369115.9,286047002.1,N
1672369135.8,286047001.6,N
1672369155.6,286047002.8,N
1672369175.4,286046999.9,N
1672369195.3,286047001.0,N
